Weather in Orichi

Russia / Kirov Oblast     58°24′04″N   49°03′34″E
В апреле 2022 года жителям России запретили посещать сайт meteo.paraplan.net по решению Генеральной прокуратуры. Аудитория сайта уменьшилась в 10 раз. Владельцы сайта не видят смысла в поддержке погодного сервера в таких условиях. Сайт будет закрыт в октябре.
temp.,
°C
wind,
m/s
gust,
m/s
humid.,
%
clouds,
%
prec.,
mm/h
press.,
hPa
HPBL,
m
30 september, fri
fri3000:00+2ese3998100 0.4 1020400
03:00+3ese3799100 0.5 1021336
06:00+3ese2697100 0.1 1022258
09:00+4se3595100 0.1 1023262
12:00+7se3592100 0.0 1024429
15:00+8se3691100 0.0 1025419
18:00+7se4894100 0.0 1025464
21:00+6sse4994100 0.0 1025404
1 october, sat
sat100:00+6se41094100 0.0 1024345
03:00+5sse3109667 0.0 1024313
06:00+5sse4119699 0.0 1024312
09:00+8sse41090100 0.0 1023403
12:00+13s5874100 0.0 1021643
15:00+11sse41084100 0.1 1020499
18:00+11sse5128494 0.3 1019577
21:00+10sse51389100 0.6 1017507
2 october, sun
sun200:00+10sse51491100 2.1 1015528
03:00+10sse51494100 4.9 1014509
06:00+11sse51590100 2.4 1012573
09:00+12sse51487100 3.0 1011654
12:00+14s61385100 0.7 1009925
15:00+14s61391100 1.7 1008915
18:00+13ssw61388100 0.3 1008766
21:00+11sw41184100 0.7 1009466
3 october, mon
mon300:00+9ssw3993100 0.0 1010251
03:00+8ssw279574 0.0 1011176
06:00+9ssw2593100 0.0 1012137
09:00+12se238497 0.0 1012205
12:00+15se3690100 0.1 1013539
15:00+17sse41086100 0.4 1012669
18:00+15sse51384100 0.0 1013504
21:00+14s51574100 0.0 1014576
4 october, tue
tue400:00+13s5157096 0.0 1015622
03:00+13sse5146799 0.0 1016560
06:00+12sse61461100 0.0 1017609
09:00+13sse61555100 0.0 1019848
12:00+14s61249100 0.0 10201004
15:00+13s51149100 0.0 10211031
18:00+12s51255100 0.0 10221214
21:00+11s61281100 0.1 1023984